Location: Skalnate Pleso
(49.1889°N, 20.2450°E)
Time: 11:08:10
(UTC+01:00)

CZ-4C R/B - Pass Details

Date: 19 November 2019
Orbit: 650 x 1352 km, 63.4° (Epoch: 08 December)

Event Time Altitude Azimuth Distance (km) Brightness Sun altitude
Exits shadow 05:37:44 10° 319° (NW) 2,663 4.3 -12.4°
Maximum altitude 05:42:52 26° 13° (NNE) 1,977 4.1 -11.6°
Drops below altitude 10° 05:48:50 10° 67° (ENE) 3,101 5.9 -10.7°
Sets 05:52:22 0° 80° (E) 4,170 7.0 -10.1°
